User: anonymous   Login
Location: Unspecified
(0.0000°N, 0.0000°E)
Time: 16:53:01
(UTC+00:00)
Language:

COROT - Orbit

View from above orbital plane
View from above orbital plane
View from above satellite
View from above satellite

Ground track
Ground track

The orbit data is extracted from the following two-line orbital elements,

1 29678U 06063A   19080.83351326  .00000180  00000-0  36555-4 0  9993
2 29678  90.0421  17.8269 0204131  99.3150 263.1199 14.44253176632819
Epoch (UTC): 21 March 2019 20:00:15
Eccentricity: 0.0204131
inclination: 90.0421°
perigee height: 599 km
apogee height: 890 km
right ascension of ascending node: 17.8269°
argument of perigee: 99.3150°
revolutions per day: 14.44253176
mean anomaly at epoch: 263.1199°
orbit number at epoch: 63281

The dashed part of the orbit path shows where the satellite is in the earth's shadow,  

DLR